[[{"header":{"parameterUnit":"m.s-1","parameterCategory":1,"la1":30.2991,"la2":30.254,"lo1":-89.0895,"lo2":-89.0444,"dy":0.0017,"dx":0.0017,"nx":28,"ny":28,"refTime":"2025-07-23T03:00:00:Z","depth":0,"parameterNumber":2,"parameterNumberName":"U-component_of_WINDS"},"data":[0,0,0,0,0,0,0,0,0,0,0,0,0,0,0,0,0,0,0,0,0,0,0,0,0,0,0,0,0,0,0,0,0,0,0,0,0,0,0,0,0,0,0,0,0,0,0,0,0,0,0,0,0,0,0,0,0,0,1.1222,1.1221,0,1.1108,1.1107,1.1105,1.1063,1.1063,1.1064,1.1064,1.0938,1.0934,1.093,0,0,0,0,0,0,0,0,0,0,0,0,0,1.1395,1.1393,1.1222,1.1221,1.1219,1.1108,1.1106,1.1105,1.1063,1.1063,1.1064,1.1064,1.0939,1.0935,1.093,0,0,0,0,0,0,0,0,0,0,0,0,0,1.1304,1.1392,1.1222,1.1185,1.1181,1.1108,1.1106,1.1104,1.1063,1.1063,1.1064,1.1064,1.094,1.0935,1.0929,1.0883,0,0,1.0912,1.091,0,0,0,0,0,0,0,0,1.131,1.1298,1.1192,1.1188,1.1182,1.11,1.1121,1.103,1.1063,1.1107,1.1064,1.1065,1.0991,1.0981,1.0958,1.0877,1.0872,1.0912,1.0908,1.0906,1.0904,0,0,0,0,0,0,0,1.1316,1.1303,1.1177,1.119,1.1185,1.1171,1.1159,1.1104,1.1047,1.1103,1.11,1.1088,1.0988,1.0964,1.0955,1.087,1.0912,1.0907,1.0904,1.0901,1.0745,1.0744,0,0,0,0,0,0,1.133,1.1308,1.118,1.1173,1.1249,1.1168,1.1154,1.1126,1.1047,1.1036,1.1087,1.1086,1.0973,1.0961,1.095,1.089,1.0906,1.0901,1.0898,1.0746,1.0745,1.0744,0,0,0,0,0,0,1.1334,1.1319,1.1185,1.124,1.1222,1.1164,1.1133,1.1123,1.1099,1.1035,1.1024,1.1073,1.0973,1.0958,1.0901,1.0885,1.0898,1.0893,1.0746,1.0745,1.0744,1.0771,0,0,0,0,0,0,1.1339,1.132,1.1304,1.124,1.1219,1.114,1.1132,1.1121,1.109,1.1088,1.1019,1.1008,1.0972,1.0909,1.0895,1.0878,1.0889,1.0748,1.0746,1.0745,1.0771,1.0771,1.0771,0,0,0,0,0,1.1345,1.1314,1.1303,1.1288,1.1198,1.1139,1.1127,1.1089,1.1089,1.1071,1.103,1.101,1.089,1.0904,1.0887,1.0868,1.0748,1.0746,1.0745,1.0771,1.0771,1.0771,0,0,0,0,0,0,1.1374,1.1305,1.1292,1.124,1.1196,1.1132,1.1108,1.109,1.1042,1.1041,1.0993,1.0978,1.0925,1.0891,1.0907,1.0819,1.0818,1.0812,1.0843,1.0843,1.0842,1.0851,1.0884,0,0,0,0,0,1.1375,1.1336,1.1276,1.1236,1.1215,1.1166,1.1138,1.1114,1.1065,1.1045,1.1,1.0951,1.0902,1.087,1.0822,1.0767,1.075,1.0745,1.0745,1.0745,1.0741,1.0709,1.0706,1.0738,1.0738,1.0738,0,0,1.1375,1.1333,1.131,1.1241,1.1204,1.1162,1.115,1.1106,1.1073,1.1037,1.0981,1.0947,1.0888,1.0832,1.0805,1.0802,1.0729,1.0743,1.0744,1.0739,1.0707,1.0704,1.0701,1.0737,1.0737,1.0737,0,0,1.1354,1.1319,1.1282,1.1246,1.1191,1.1159,1.115,1.1089,1.1066,1.101,1.0982,1.0941,1.0858,1.0818,1.0787,1.0753,1.0732,1.0739,1.0736,1.0706,1.0703,1.0701,1.0688,1.0684,1.0735,1.0735,1.0735,0,1.136,1.1299,1.1264,1.1222,1.1192,1.1161,1.1121,1.1087,1.1018,1.0997,1.0996,1.0892,1.085,1.0785,1.0777,1.0753,1.0739,1.0745,1.0707,1.0704,1.0701,1.0688,1.0684,1.0736,1.0736,1.0736,1.0735,0,1.1309,1.1267,1.1243,1.1181,1.1148,1.1108,1.1064,1.1034,1.1013,1.098,1.0922,1.0872,1.0814,1.0796,1.0773,1.0727,1.0727,1.0717,1.0714,1.07,1.0687,1.0682,1.0737,1.0737,1.0737,1.0736,0,0,1.1301,1.1223,1.1214,1.1186,1.1125,1.109,1.1048,1.0994,1.0969,1.0922,1.0884,1.0816,1.0807,1.0772,1.0744,1.0718,1.0693,1.0711,1.0709,1.0709,1.0638,1.0645,1.064,1.068,1.0679,1.0678,1.0643,0,1.1271,1.1198,1.1165,1.1105,1.1065,1.1036,1.0999,1.0956,1.0924,1.0883,1.0847,1.08,1.0792,1.0771,1.0743,1.0702,1.0678,1.0704,1.0641,1.064,1.0656,1.0634,1.0641,1.061,1.0638,1.0637,1.0636,0,1.1226,1.1184,1.1121,1.1066,1.1048,1.1015,1.0963,1.0926,1.0876,1.0855,1.0817,1.0791,1.0743,1.0745,1.0677,1.0696,1.0668,1.0644,1.0642,1.0633,1.0636,1.0623,1.0599,1.0594,1.0628,1.0629,1.0629,0,1.1226,1.1153,1.1106,1.1083,1.1017,1.0995,1.0966,1.0918,1.0887,1.0841,1.0821,1.0768,1.0739,1.0698,1.0658,1.0663,1.0593,1.0592,1.0572,1.0573,1.0557,1.0559,1.0528,1.0542,1.0542,1.0542,1.0542,0,1.1196,1.1158,1.1106,1.1077,1.1033,1.0996,1.0953,1.0921,1.0878,1.084,1.0811,1.0776,1.0726,1.0683,1.0651,1.06,1.0586,1.0566,1.0558,1.0568,1.0571,1.0548,1.0549,1.0541,1.0541,1.0541,1.0542,0,1.1187,1.1151,1.1098,1.1042,1.1027,1.0997,1.0947,1.0916,1.0885,1.0838,1.0824,1.0773,1.0722,1.0678,1.061,1.0588,1.0534,1.0525,1.0552,1.0548,1.0531,1.0532,1.0483,1.0474,1.0496,1.0495,1.0495,0,1.117,1.1141,1.1083,1.1057,1.103,1.0989,1.0959,1.092,1.089,1.0832,1.0808,1.0756,1.0712,1.0631,1.0586,1.0533,1.0521,1.0508,1.0513,1.0525,1.052,1.0522,1.0518,1.0507,1.0507,1.0507,1.0507,0,1.1142,1.1127,1.1087,1.104,1.1007,1.0967,1.0927,1.0907,1.086,1.0827,1.0777,1.0743,1.0676,1.0623,1.0566,1.0533,1.0511,1.0506,1.0499,1.0508,1.0525,1.0515,1.0551,1.0507,1.0507,1.0507,1.0507,1.0507,1.1128,1.1101,1.1057,1.1013,1.098,1.0943,1.0912,1.0878,1.0836,1.078,1.076,1.0708,1.0658,1.058,1.0547,1.0504,1.0501,1.049,1.0487,1.0485,1.0486,1.0534,1.0494,1.0493,1.0493,1.0493,1.0493,0,1.1098,1.1069,1.103,1.0976,1.0941,1.0929,1.0884,1.0854,1.081,1.0768,1.0726,1.0668,1.0618,1.057,1.0516,1.0491,1.048,1.0478,1.0479,1.0471,1.0493,1.0504,1.0488,1.0488,1.0488,1.0488,1.0488,1.0488,1.1079,1.1033,1.1012,1.0949,1.0918,1.087,1.0846,1.0811,1.0777,1.0715,1.0674,1.0645,1.0599,1.0543,1.0495,1.0482,1.0463,1.0464,1.0448,1.0469,1.047,1.0471,1.0481,1.0461,1.0461,1.043,1.043,1.043]},{"header":{"parameterUnit":"m.s-1","parameterCategory":1,"la1":30.2991,"la2":30.254,"lo1":-89.0895,"lo2":-89.0444,"dy":0.0017,"dx":0.0017,"nx":28,"ny":28,"refTime":"2025-07-23T03:00:00:Z","depth":0,"parameterNumber":3,"parameterNumberName":"V-component_of_WINDS"},"data":[0,0,0,0,0,0,0,0,0,0,0,0,0,0,0,0,0,0,0,0,0,0,0,0,0,0,0,0,0,0,0,0,0,0,0,0,0,0,0,0,0,0,0,0,0,0,0,0,0,0,0,0,0,0,0,0,0,0,-0.7602,-0.7605,0,-0.7853,-0.7856,-0.7859,-0.8041,-0.8042,-0.8044,-0.8045,-0.8304,-0.831,-0.8315,0,0,0,0,0,0,0,0,0,0,0,0,0,-0.7284,-0.7288,-0.7602,-0.7605,-0.7608,-0.7853,-0.7856,-0.786,-0.804,-0.8042,-0.8044,-0.8046,-0.8303,-0.8309,-0.8316,0,0,0,0,0,0,0,0,0,0,0,0,0,-0.7467,-0.729,-0.7602,-0.7728,-0.7742,-0.7852,-0.7856,-0.7861,-0.804,-0.8042,-0.8045,-0.8047,-0.8301,-0.8309,-0.8317,-0.8322,0,0,-0.8342,-0.8345,0,0,0,0,0,0,0,0,-0.7456,-0.7478,-0.7706,-0.772,-0.7735,-0.7918,-0.7839,-0.8015,-0.8039,-0.7927,-0.8045,-0.8048,-0.8174,-0.8193,-0.8235,-0.8334,-0.8345,-0.8343,-0.8348,-0.8351,-0.8353,0,0,0,0,0,0,0,-0.7443,-0.7469,-0.7702,-0.7709,-0.7727,-0.7774,-0.7802,-0.7873,-0.8035,-0.7937,-0.7951,-0.7978,-0.8183,-0.8227,-0.8243,-0.8349,-0.8342,-0.835,-0.8355,-0.8358,-0.8468,-0.8466,0,0,0,0,0,0,-0.741,-0.7457,-0.7694,-0.7709,-0.7598,-0.7777,-0.7809,-0.7857,-0.8035,-0.8064,-0.7975,-0.7985,-0.8212,-0.8233,-0.8252,-0.8271,-0.8351,-0.8359,-0.8364,-0.847,-0.8467,-0.8465,0,0,0,0,0,0,-0.7403,-0.743,-0.7684,-0.7587,-0.7623,-0.778,-0.7833,-0.7861,-0.7905,-0.8064,-0.8094,-0.7991,-0.8214,-0.8241,-0.8304,-0.8283,-0.8363,-0.837,-0.8472,-0.8469,-0.8466,-0.8308,0,0,0,0,0,0,-0.7393,-0.7426,-0.7428,-0.7586,-0.7627,-0.7729,-0.7831,-0.7864,-0.7919,-0.7934,-0.8086,-0.8113,-0.8218,-0.829,-0.8312,-0.8296,-0.8376,-0.8475,-0.8471,-0.8467,-0.8316,-0.83,-0.8286,0,0,0,0,0,-0.7381,-0.7374,-0.7428,-0.7455,-0.7634,-0.7727,-0.7751,-0.7871,-0.7916,-0.7921,-0.8023,-0.8109,-0.8282,-0.8295,-0.8321,-0.8307,-0.8476,-0.8472,-0.8467,-0.8322,-0.8303,-0.8287,0,0,0,0,0,0,-0.7212,-0.7397,-0.7458,-0.7502,-0.7597,-0.7758,-0.7767,-0.7847,-0.7932,-0.7942,-0.8089,-0.8121,-0.8169,-0.8245,-0.8257,-0.8323,-0.839,-0.839,-0.8271,-0.8254,-0.8239,-0.822,-0.8383,0,0,0,0,0,-0.7179,-0.7238,-0.7398,-0.7422,-0.7466,-0.7608,-0.7653,-0.7737,-0.7842,-0.7884,-0.7991,-0.809,-0.8168,-0.8215,-0.8295,-0.8328,-0.8364,-0.8331,-0.8316,-0.8304,-0.8302,-0.8326,-0.8313,-0.845,-0.845,-0.845,0,0,-0.7113,-0.7222,-0.7251,-0.739,-0.7474,-0.7533,-0.7641,-0.7699,-0.7745,-0.7893,-0.7959,-0.804,-0.8162,-0.8209,-0.8236,-0.8274,-0.8272,-0.8298,-0.8286,-0.8292,-0.832,-0.8307,-0.8295,-0.8447,-0.8447,-0.8448,0,0,-0.7023,-0.7111,-0.714,-0.7222,-0.7347,-0.7442,-0.7448,-0.7597,-0.7657,-0.7725,-0.7838,-0.7896,-0.8025,-0.8107,-0.8165,-0.8107,-0.8189,-0.8129,-0.8052,-0.8074,-0.8063,-0.8054,-0.8034,-0.8025,-0.8127,-0.8127,-0.8127,0,-0.6925,-0.7018,-0.7146,-0.7197,-0.7256,-0.7392,-0.7424,-0.7498,-0.7642,-0.768,-0.7721,-0.7887,-0.7978,-0.8047,-0.8033,-0.8076,-0.8089,-0.8112,-0.8054,-0.8047,-0.804,-0.8022,-0.8014,-0.8119,-0.812,-0.8121,-0.8121,0,-0.6892,-0.6955,-0.6964,-0.7099,-0.7159,-0.72,-0.7335,-0.7381,-0.746,-0.755,-0.7619,-0.7733,-0.7839,-0.7862,-0.794,-0.7943,-0.7963,-0.8026,-0.8097,-0.8017,-0.8003,-0.7997,-0.8107,-0.811,-0.8113,-0.8115,0,0,-0.6701,-0.6907,-0.6908,-0.6971,-0.712,-0.7172,-0.722,-0.7323,-0.7359,-0.7455,-0.75,-0.7607,-0.7667,-0.7733,-0.7823,-0.7842,-0.7789,-0.7904,-0.7909,-0.7878,-0.78,-0.775,-0.7739,-0.7845,-0.7844,-0.7843,-0.7789,0,-0.6634,-0.6726,-0.6842,-0.6895,-0.6955,-0.7087,-0.7129,-0.7226,-0.7312,-0.7377,-0.7474,-0.7547,-0.7621,-0.7662,-0.7687,-0.7789,-0.7775,-0.7795,-0.7888,-0.789,-0.7853,-0.7732,-0.768,-0.7623,-0.7785,-0.7784,-0.7783,0,-0.6567,-0.6655,-0.6713,-0.6857,-0.6887,-0.6922,-0.7026,-0.7086,-0.7199,-0.7261,-0.7335,-0.7431,-0.749,-0.7553,-0.7637,-0.7648,-0.7694,-0.775,-0.7751,-0.7764,-0.7831,-0.7741,-0.7608,-0.7599,-0.7776,-0.7776,-0.7777,0,-0.6421,-0.6555,-0.6607,-0.6657,-0.6827,-0.6849,-0.6921,-0.7036,-0.709,-0.7182,-0.7219,-0.7316,-0.7369,-0.7443,-0.7563,-0.7598,-0.7634,-0.7708,-0.7688,-0.7685,-0.7689,-0.7687,-0.756,-0.7719,-0.7719,-0.7719,-0.7719,0,-0.6333,-0.6364,-0.6544,-0.6575,-0.6614,-0.6749,-0.6784,-0.6869,-0.697,-0.7022,-0.7142,-0.7189,-0.7345,-0.741,-0.7505,-0.7561,-0.7584,-0.7636,-0.7661,-0.7625,-0.7618,-0.7656,-0.7663,-0.7717,-0.7717,-0.7718,-0.7718,0,-0.6177,-0.6298,-0.6364,-0.6519,-0.6559,-0.658,-0.6714,-0.6751,-0.6845,-0.6909,-0.6932,-0.7079,-0.7163,-0.729,-0.7412,-0.7476,-0.7515,-0.7557,-0.7476,-0.7491,-0.7464,-0.7464,-0.7357,-0.735,-0.7512,-0.751,-0.7508,0,-0.6112,-0.6138,-0.6296,-0.6338,-0.6406,-0.6473,-0.6529,-0.6664,-0.6718,-0.6849,-0.687,-0.6962,-0.7043,-0.7171,-0.729,-0.7384,-0.7428,-0.7384,-0.7443,-0.7406,-0.7427,-0.7423,-0.7427,-0.7369,-0.7367,-0.7365,-0.7363,0,-0.5984,-0.6043,-0.6118,-0.6214,-0.6277,-0.636,-0.6449,-0.6478,-0.6632,-0.6687,-0.6773,-0.6835,-0.696,-0.705,-0.7161,-0.7237,-0.7326,-0.7344,-0.7344,-0.7307,-0.7259,-0.7284,-0.7438,-0.7345,-0.7347,-0.7348,-0.7349,-0.735,-0.5872,-0.5901,-0.6016,-0.6096,-0.6177,-0.6258,-0.63,-0.6399,-0.6472,-0.6583,-0.6659,-0.674,-0.6855,-0.7012,-0.7084,-0.7151,-0.7189,-0.719,-0.719,-0.7188,-0.7174,-0.7249,-0.7172,-0.7173,-0.7173,-0.7174,-0.7174,0,-0.575,-0.583,-0.5902,-0.6022,-0.6085,-0.6163,-0.6266,-0.6314,-0.6383,-0.6482,-0.6559,-0.6658,-0.6747,-0.6873,-0.6972,-0.7001,-0.7045,-0.7023,-0.7022,-0.7038,-0.7135,-0.7124,-0.6986,-0.6986,-0.6986,-0.6986,-0.6986,-0.6986,-0.5693,-0.5747,-0.582,-0.5916,-0.5998,-0.6077,-0.6129,-0.6205,-0.6284,-0.6389,-0.6463,-0.6544,-0.6655,-0.6762,-0.6848,-0.6883,-0.6914,-0.6879,-0.6926,-0.7014,-0.7031,-0.7047,-0.7038,-0.6884,-0.6884,-0.6824,-0.6823,-0.6823]}]]